UUI YCBG-YCBG

Flight info

Callsign UUI
Flight time 0h 0m
Altitude 2500
Route VFR
Aircraft AS50/M-SDE3FGHIRWY/LB1

Departure

Time 2026-04-20 07:13
Airport Cambridge Aerodrome (YCBG)

Arrival

Time 2026-04-20 07:13
Airport Cambridge Aerodrome (YCBG)
Time Latitude Longitude Altitude Speed Heading
2026-04-20 07:12 -42.72735 147.62842 1621 ft 58 kts 327°
2026-04-20 07:12 -42.72430 147.62847 1795 ft 30 kts 61°
2026-04-20 07:13 -42.72400 147.62964 1436 ft 14 kts 123°
2026-04-20 07:13 -42.72539 147.63281 1555 ft 69 kts 124°
2026-04-20 07:13 -42.72919 147.63963 1488 ft 101 kts 138°
2026-04-20 07:13 -42.73221 147.64152 1558 ft 44 kts 248°
2026-04-20 07:14 -42.73204 147.63861 1465 ft 54 kts 313°
2026-04-20 07:14 -42.72879 147.63394 1432 ft 71 kts 313°
2026-04-20 07:14 -42.72723 147.63113 1577 ft 23 kts 313°
2026-04-20 07:14 -42.72654 147.62931 1413 ft 11 kts 293°
2026-04-20 07:15 -42.72668 147.62881 1270 ft 4 kts 317°
2026-04-20 07:15 -42.72659 147.62869 1226 ft 1 kts 359°
2026-04-20 07:15 -42.72658 147.62868 1223 ft 0 kts
2026-04-20 07:25 -42.72657 147.62871 1242 ft 1 kts 308°
2026-04-20 07:25 -42.72636 147.62851 1396 ft 6 kts 314°
2026-04-20 07:26 -42.72561 147.62854 1756 ft 32 kts
2026-04-20 07:26 -42.72431 147.63156 2014 ft 31 kts 109°
2026-04-20 07:26 -42.72668 147.63536 1862 ft 77 kts 153°
2026-04-20 07:26 -42.73138 147.63970 1583 ft 69 kts 209°
2026-04-20 07:27 -42.73244 147.63977 1551 ft 38 kts 318°
2026-04-20 07:27 -42.72858 147.63543 1609 ft 97 kts 308°
2026-04-20 07:27 -42.72532 147.62688 1771 ft 106 kts 281°
2026-04-20 07:27 -42.72588 147.61707 1737 ft 103 kts 254°
2026-04-20 07:28 -42.72852 147.60875 1833 ft 88 kts 247°
2026-04-20 07:28 -42.73132 147.60127 1776 ft 90 kts 246°
2026-04-20 07:28 -42.73435 147.59377 1727 ft 91 kts 245°
2026-04-20 07:28 -42.73743 147.58623 1679 ft 91 kts 245°
2026-04-20 07:29 -42.74052 147.57871 1609 ft 91 kts 245°
2026-04-20 07:29 -42.74361 147.57127 1535 ft 91 kts 244°
2026-04-20 07:29 -42.74677 147.56375 1472 ft 91 kts 244°
2026-04-20 07:29 -42.74994 147.55626 1438 ft 91 kts 244°
2026-04-20 07:30 -42.75314 147.54879 1398 ft 91 kts 244°
2026-04-20 07:30 -42.75637 147.54132 1379 ft 91 kts 243°
2026-04-20 07:30 -42.76015 147.53428 1328 ft 92 kts 237°
2026-04-20 07:30 -42.76411 147.52734 1259 ft 93 kts 237°
2026-04-20 07:31 -42.76806 147.52053 1177 ft 93 kts 236°
2026-04-20 07:31 -42.77210 147.51368 1096 ft 93 kts 236°
2026-04-20 07:31 -42.77641 147.50714 1019 ft 92 kts 226°
2026-04-20 07:31 -42.78223 147.50281 856 ft 100 kts 208°
2026-04-20 07:32 -42.78854 147.49932 771 ft 97 kts 208°
2026-04-20 07:32 -42.79468 147.49604 706 ft 97 kts 207°
2026-04-20 07:32 -42.80102 147.49274 630 ft 97 kts 207°
2026-04-20 07:32 -42.80725 147.48961 587 ft 94 kts 206°
2026-04-20 07:33 -42.81343 147.48652 549 ft 91 kts 207°
2026-04-20 07:33 -42.81904 147.48369 625 ft 81 kts 208°
2026-04-20 07:33 -42.82408 147.48097 696 ft 73 kts 212°
2026-04-20 07:33 -42.82780 147.47837 699 ft 47 kts 229°
2026-04-20 07:34 -42.82855 147.47694 427 ft 16 kts 279°
2026-04-20 07:34 -42.82844 147.47550 294 ft 14 kts 203°
2026-04-20 07:34 -42.82922 147.47496 228 ft 6 kts 258°
2026-04-20 07:35 -42.82915 147.47496 43 ft 1 kts
2026-04-20 07:35 -42.82914 147.47495 35 ft 0 kts 358°